FW7253 Weather Reports


time (UTC)temp
F
wind
direction
speed
knots
gust
knots
rain 1hr
in
rain 24hr
in
rain mn
in
humidity
%
barometer
mb
20220524025532 49 288 0.0 0.9 0.00 0.00 0.00 89 1004.3
20220524025033 49 287 0.9 0.9 0.00 0.00 0.00 89 1004.3
20220524024551 49 285 0.0 0.0 0.00 0.00 0.00 89 1004.3
20220524024033 49 0 0.0 0.9 0.00 0.00 0.00 89 1004.5
20220524023537 49 0 0.0 0.9 0.00 0.00 0.00 89 1004.4
20220524023054 49 0 0.0 0.9 0.00 0.00 0.00 89 1004.5
20220524022532 49 0 0.0 0.9 0.00 0.00 0.00 89 1004.6
20220524022033 49 286 0.0 0.9 0.00 0.00 0.00 89 1004.6
20220524021548 49 286 0.0 0.0 0.00 0.00 0.00 88 1004.7
20220524021033 49 0 0.0 0.0 0.00 0.00 0.00 88 1004.7
20220524020535 49 0 0.0 0.9 0.00 0.00 0.00 88 1004.6
20220524020038 49 0 0.0 0.9 0.00 0.00 0.00 88 1004.8
20220524015532 49 0 0.0 0.9 0.00 0.00 0.00 88 1004.8
20220524015033 49 0 0.0 0.9 0.00 0.00 0.00 87 1004.8
20220524014539 49 0 0.0 0.9 0.00 0.00 0.00 87 1004.8
20220524014030 49 0 0.0 0.9 0.00 0.00 0.00 87 1004.8
20220524013531 49 0 0.0 0.0 0.00 0.00 0.00 86 1004.9
20220524013046 50 0 0.0 0.9 0.00 0.00 0.00 85 1004.9
20220524012532 49 0 0.0 0.9 0.00 0.00 0.00 86 1005.1
20220524012038 49 0 0.0 0.0 0.00 0.00 0.00 86 1005.3
20220524011542 49 0 0.0 0.9 0.00 0.00 0.00 86 1005.2
20220524011033 49 0 0.0 0.9 0.00 0.00 0.00 86 1005.2
20220524010536 49 284 0.0 0.9 0.00 0.00 0.00 85 1005.2
20220524010042 50 284 0.0 0.9 0.00 0.00 0.00 84 1005.1
20220524005532 50 334 0.0 0.9 0.00 0.00 0.00 83 1005.3
20220524005033 51 334 0.0 1.7 0.00 0.00 0.00 82 1005.3
20220524004609 51 0 0.0 1.7 0.00 0.00 0.00 81 1005.3
20220524004036 52 334 0.9 1.7 0.00 0.00 0.00 81 1005.3
20220524003535 52 333 0.9 2.6 0.00 0.00 0.00 81 1005.3
20220524003043 52 334 0.9 3.5 0.00 0.00 0.00 81 1005.4
20220524002535 51 338 1.7 3.5 0.00 0.00 0.00 82 1005.4
20220524002036 51 344 1.7 2.6 0.00 0.00 0.00 83 1005.4
20220524001542 51 330 0.0 0.9 0.00 0.00 0.00 84 1005.4
20220524001033 51 330 0.0 0.9 0.00 0.00 0.00 83 1005.5
20220524000530 51 0 0.0 1.7 0.00 0.00 0.00 82 1005.7
20220524000116 52 330 0.9 2.6 0.00 0.00 0.00 80 1005.7
20220523235533 52 338 0.9 2.6 0.00 0.00 0.00 80 1005.8
20220523235033 52 333 1.7 2.6 0.00 0.00 0.00 80 1005.7
20220523234545 52 342 0.9 2.6 0.00 0.00 0.00 80 1006.0
20220523234033 52 329 0.9 1.7 0.00 0.00 0.00 80 1006.0
20220523233535 52 324 0.9 2.6 0.00 0.00 0.00 81 1006.0
20220523233043 52 323 1.7 2.6 0.00 0.00 0.00 81 1005.9
20220523232535 52 333 0.9 1.7 0.00 0.00 0.00 82 1006.0
20220523232033 52 340 0.0 0.9 0.00 0.00 0.00 82 1006.0
20220523231543 52 340 0.0 0.9 0.00 0.00 0.00 82 1006.2
20220523231035 51 340 0.0 0.9 0.00 0.00 0.00 83 1006.2
20220523230533 52 346 0.0 0.9 0.00 0.00 0.00 82 1006.2
20220523230049 52 0 0.0 1.7 0.00 0.00 0.00 82 1006.4
20220523225534 52 346 0.0 1.7 0.00 0.00 0.00 82 1006.3
20220523225034 52 346 0.0 1.7 0.00 0.00 0.00 82 1006.3
20220523224617 52 347 0.0 0.9 0.00 0.00 0.00 83 1006.3
20220523224037 52 347 0.0 0.9 0.00 0.00 0.00 83 1006.4
20220523223535 52 0 0.0 0.9 0.00 0.00 0.00 82 1006.5
20220523223040 52 347 0.0 0.9 0.00 0.00 0.00 82 1006.6
20220523222534 52 45 0.9 0.9 0.00 0.00 0.00 82 1006.6
20220523222035 52 0 0.0 0.9 0.00 0.00 0.00 82 1006.7
20220523221544 52 0 0.0 0.9 0.00 0.00 0.00 82 1006.7
20220523221032 52 0 0.0 0.9 0.00 0.00 0.00 82 1006.7
20220523220532 52 0 0.0 0.9 0.00 0.00 0.00 82 1006.9
20220523220052 52 112 0.0 0.9 0.00 0.00 0.00 82 1006.7
20220523215533 52 0 0.0 0.0 0.00 0.00 0.00 82 1006.8
20220523215033 52 0 0.0 0.0 0.00 0.00 0.00 83 1006.8
20220523214545 52 0 0.0 0.0 0.00 0.00 0.00 83 1006.9
20220523214034 52 0 0.0 0.0 0.00 0.00 0.00 83 1006.9
20220523213533 52 0 0.0 0.0 0.00 0.00 0.00 83 1006.8
20220523213045 52 0 0.0 0.9 0.00 0.00 0.00 84 1007.0
20220523212534 52 0 0.0 0.9 0.00 0.00 0.00 83 1007.1
20220523212032 52 0 0.0 0.0 0.00 0.00 0.00 83 1007.0
20220523211543 52 0 0.0 0.9 0.00 0.00 0.00 83 1007.2
20220523211039 52 0 0.0 0.9 0.00 0.00 0.00 84 1007.1
20220523210534 52 113 0.0 0.9 0.00 0.00 0.00 84 1007.3
20220523210053 52 113 0.0 0.0 0.00 0.00 0.00 83 1007.2
20220523205534 52 0 0.0 0.0 0.00 0.00 0.00 83 1007.2
20220523205035 52 0 0.0 0.0 0.00 0.00 0.00 83 1007.3
20220523204604 52 0 0.0 0.0 0.00 0.00 0.00 83 1007.3
20220523204038 52 0 0.0 0.0 0.00 0.00 0.00 83 1007.3
20220523203533 52 0 0.0 0.9 0.00 0.00 0.00 83 1007.3
20220523203044 52 0 0.0 1.7 0.00 0.00 0.00 83 1007.3
20220523202532 52 0 0.0 1.7 0.00 0.00 0.00 82 1007.4
20220523202033 52 0 0.0 0.9 0.00 0.00 0.00 81 1007.3
20220523201536 52 113 0.0 1.7 0.00 0.00 0.00 81 1007.4
20220523201040 53 134 0.0 1.7 0.00 0.00 0.00 79 1007.5
20220523200533 53 0 0.0 2.6 0.00 0.00 0.00 78 1007.4
20220523200038 53 86 0.0 2.6 0.00 0.00 0.00 76 1007.4
20220523195532 53 0 0.0 2.6 0.00 0.00 0.00 74 1007.3
20220523195032 54 0 0.0 3.5 0.00 0.00 0.00 73 1007.2
20220523194534 54 113 0.9 5.2 0.00 0.00 0.00 73 1007.3
20220523194031 55 116 0.9 5.2 0.00 0.00 0.00 72 1007.3
20220523193539 55 0 0.9 7.0 0.00 0.00 0.00 72 1007.2
20220523193038 55 99 2.6 7.0 0.00 0.00 0.00 71 1007.2
20220523192532 55 91 1.7 3.5 0.00 0.00 0.00 71 1007.2
20220523192031 55 105 0.0 1.7 0.00 0.00 0.00 70 1007.2
20220523191543 55 0 0.0 1.7 0.00 0.00 0.00 70 1007.3
20220523191035 55 0 0.0 1.7 0.00 0.00 0.00 70 1007.3
20220523190534 55 0 0.0 3.5 0.00 0.00 0.00 69 1007.3
20220523190041 55 92 0.9 3.5 0.00 0.00 0.00 69 1007.2
20220523185532 55 155 0.0 1.7 0.00 0.00 0.00 69 1007.4
20220523185033 56 0 0.0 2.6 0.00 0.00 0.00 69 1007.4
20220523184542 56 167 0.0 2.6 0.00 0.00 0.00 68 1007.3
20220523184032 56 113 0.9 3.5 0.00 0.00 0.00 67 1007.3
20220523183532 57 82 0.9 5.2 0.00 0.00 0.00 66 1007.3
20220523183059 57 98 2.6 5.2 0.00 0.00 0.00 65 1007.3
20220523182529 57 168 1.7 4.3 0.00 0.00 0.00 64 1007.5
20220523182037 57 145 1.7 4.3 0.00 0.00 0.00 65 1007.5
20220523181541 57 186 1.7 4.3 0.00 0.00 0.00 65 1007.5
20220523181034 57 60 0.9 3.5 0.00 0.00 0.00 65 1007.7
20220523180532 58 90 0.9 5.2 0.00 0.00 0.00 64 1007.6
20220523180055 58 126 1.7 7.0 0.00 0.00 0.00 63 1007.6
20220523175533 58 119 1.7 7.8 0.00 0.00 0.00 63 1007.6
20220523175034 58 155 3.5 7.8 0.00 0.00 0.00 62 1007.5
20220523174542 58 239 2.6 7.8 0.00 0.00 0.00 62 1007.5
20220523174033 58 72 3.5 8.7 0.00 0.00 0.00 63 1007.6
20220523173538 58 78 2.6 8.7 0.00 0.00 0.00 65 1007.5
20220523173045 58 29 1.7 7.0 0.00 0.00 0.00 65 1007.6
20220523172530 58 122 1.7 9.6 0.00 0.00 0.00 65 1007.7
20220523172032 59 95 1.7 9.6 0.00 0.00 0.00 65 1007.8
20220523171550 59 122 3.5 9.6 0.00 0.00 0.00 64 1007.8
20220523171035 59 196 2.6 9.6 0.00 0.00 0.00 65 1008.0
20220523170531 59 174 5.2 9.6 0.00 0.00 0.00 64 1008.0
20220523170053 59 206 3.5 10.4 0.00 0.00 0.00 63 1008.0
20220523165532 59 81 6.1 10.4 0.00 0.00 0.00 62 1008.0
20220523165034 59 207 7.0 12.2 0.00 0.00 0.00 63 1008.0
20220523164551 59 158 5.2 12.2 0.00 0.00 0.00 62 1008.1
20220523164034 59 109 6.1 12.2 0.00 0.00 0.00 62 1008.1
20220523163539 59 88 3.5 10.4 0.00 0.00 0.00 64 1008.1
20220523163048 59 108 4.3 10.4 0.00 0.00 0.00 64 1008.0
20220523162531 60 103 4.3 10.4 0.00 0.00 0.00 65 1008.1
20220523162031 60 180 4.3 13.0 0.00 0.00 0.00 63 1008.0
20220523161546 60 172 7.8 13.0 0.00 0.00 0.00 64 1008.2
20220523161038 60 160 2.6 9.6 0.00 0.00 0.00 67 1008.2
20220523160534 60 203 5.2 9.6 0.00 0.00 0.00 68 1008.2
20220523160056 60 167 3.5 10.4 0.00 0.00 0.00 68 1008.3
20220523155538 59 150 5.2 10.4 0.00 0.00 0.00 67 1008.3
20220523155038 59 169 5.2 9.6 0.00 0.00 0.00 67 1008.5
20220523154618 60 135 5.2 10.4 0.00 0.00 0.00 67 1008.5
20220523154038 60 122 4.3 10.4 0.00 0.00 0.00 68 1008.3
20220523153537 60 94 6.1 12.2 0.00 0.00 0.00 66 1008.5
20220523153111 59 139 4.3 12.2 0.00 0.00 0.00 66 1008.5
20220523152534 59 154 4.3 8.7 0.00 0.00 0.00 67 1008.5
20220523152033 59 151 3.5 11.3 0.00 0.00 0.00 66 1008.5
20220523151545 59 156 6.1 11.3 0.00 0.00 0.00 68 1008.7
20220523151035 59 150 2.6 9.6 0.00 0.00 0.00 68 1008.6
20220523150534 59 60 3.5 13.0 0.00 0.00 0.00 68 1008.7
20220523150131 59 185 7.0 13.0 0.00 0.00 0.00 67 1008.6
20220523145534 60 175 7.0 12.2 0.00 0.00 0.00 66 1008.6
20220523145034 61 230 5.2 10.4 0.00 0.00 0.00 66 1008.7
20220523144600 60 92 2.6 9.6 0.00 0.00 0.00 67 1008.5
20220523144035 60 132 3.5 9.6 0.00 0.00 0.00 63 1008.5
20220523143538 60 108 4.3 9.6 0.00 0.00 0.00 66 1008.5
20220523143105 60 11 5.2 9.6 0.00 0.00 0.00 68 1008.6
20220523142550 59 145 4.3 11.3 0.00 0.00 0.00 67 1008.7
20220523142037 59 141 4.3 11.3 0.00 0.00 0.00 68 1008.8
20220523141601 59 102 3.5 14.8 0.00 0.00 0.00 68 1008.9
20220523141037 59 165 6.1 14.8 0.00 0.00 0.00 70 1008.7
20220523140538 59 146 5.2 13.0 0.00 0.00 0.00 69 1008.8
20220523140056 59 99 4.3 13.0 0.00 0.00 0.00 69 1008.9
20220523135538 59 106 2.6 10.4 0.00 0.00 0.00 70 1008.9
20220523135033 59 107 5.2 10.4 0.00 0.00 0.00 70 1009.1
20220523134550 59 135 3.5 8.7 0.00 0.00 0.00 69 1009.0
20220523134039 59 98 3.5 9.6 0.00 0.00 0.00 69 1009.3
20220523133533 60 118 5.2 9.6 0.00 0.00 0.00 69 1009.1
20220523133103 60 93 5.2 10.4 0.00 0.00 0.00 67 1009.1
20220523132537 61 139 4.3 10.4 0.00 0.00 0.00 68 1009.2
20220523132034 60 63 4.3 8.7 0.00 0.00 0.00 69 1009.3
20220523131545 59 135 4.3 8.7 0.00 0.00 0.00 68 1009.4
20220523131033 59 129 2.6 9.6 0.00 0.00 0.00 69 1009.5
20220523130533 59 110 4.3 9.6 0.00 0.00 0.00 66 1009.5
20220523130049 59 153 2.6 11.3 0.00 0.00 0.00 68 1009.5
20220523125532 59 181 6.1 11.3 0.00 0.00 0.00 67 1009.5
20220523125033 58 49 4.3 7.8 0.00 0.00 0.00 67 1009.6
20220523124554 59 95 2.6 11.3 0.00 0.00 0.00 68 1009.5
20220523124035 59 150 6.1 12.2 0.00 0.00 0.00 68 1009.5
20220523123537 58 141 7.8 12.2 0.00 0.00 0.00 68 1009.6
20220523123040 59 162 6.1 10.4 0.00 0.00 0.00 69 1009.5
20220523122533 59 187 3.5 11.3 0.00 0.00 0.00 68 1009.6
20220523122037 58 108 5.2 11.3 0.00 0.00 0.00 69 1009.7
20220523121541 58 169 3.5 10.4 0.00 0.00 0.00 69 1009.6
20220523121033 59 166 6.1 10.4 0.00 0.00 0.00 70 1009.6
20220523120533 59 213 6.1 10.4 0.00 0.00 0.00 70 1009.7
20220523120105 59 105 6.1 10.4 0.00 0.00 0.00 70 1009.8
20220523115537 59 216 4.3 11.3 0.00 0.00 0.00 69 1009.9
20220523115034 58 97 3.5 11.3 0.00 0.00 0.00 67 1009.8
20220523114606 58 154 4.3 9.6 0.00 0.00 0.00 68 1009.9
20220523114035 58 130 4.3 11.3 0.00 0.00 0.00 68 1009.9
20220523113533 57 198 5.2 12.2 0.00 0.00 0.00 70 1010.0
20220523113047 57 193 4.3 12.2 0.00 0.00 0.00 71 1010.1
20220523112533 57 133 4.3 7.8 0.00 0.00 0.00 72 1010.0
20220523112036 57 217 4.3 7.8 0.00 0.00 0.00 71 1010.2
20220523111634 57 215 2.6 7.8 0.00 0.00 0.00 72 1010.2
20220523111032 57 74 2.6 7.8 0.00 0.00 0.00 72 1010.3
20220523110538 57 84 2.6 7.8 0.00 0.00 0.00 73 1010.3
20220523110054 57 82 3.5 9.6 0.00 0.00 0.00 73 1010.2
20220523105618 57 94 4.3 9.6 0.00 0.00 0.00 72 1010.2
20220523105033 58 131 3.5 9.6 0.00 0.00 0.00 73 1010.2
20220523104541 57 108 1.7 8.7 0.00 0.00 0.00 75 1010.3
20220523104033 57 136 3.5 8.7 0.00 0.00 0.00 74 1010.3
20220523103538 57 245 3.5 10.4 0.00 0.00 0.00 74 1010.4
20220523103102 57 172 5.2 10.4 0.00 0.00 0.00 75 1010.2
20220523102532 57 144 4.3 10.4 0.00 0.00 0.00 74 1010.3
20220523102035 57 146 3.5 9.6 0.00 0.00 0.00 76 1010.5
20220523101545 57 141 2.6 11.3 0.00 0.00 0.00 75 1010.4
20220523101037 57 89 3.5 11.3 0.00 0.00 0.00 74 1010.4
20220523100542 57 158 3.5 8.7 0.00 0.00 0.00 74 1010.6
20220523100044 57 227 3.5 8.7 0.00 0.00 0.00 73 1010.4
20220523095538 57 115 2.6 7.0 0.00 0.00 0.00 72 1010.5
20220523095033 57 0 2.6 7.0 0.00 0.00 0.00 73 1010.4
20220523094554 57 103 2.6 7.0 0.00 0.00 0.00 71 1010.6
20220523094032 58 145 3.5 9.6 0.00 0.00 0.00 71 1010.6
20220523093533 57 215 4.3 9.6 0.00 0.00 0.00 71 1010.5
20220523093052 57 167 3.5 11.3 0.00 0.00 0.00 70 1010.6
20220523092534 57 200 7.0 11.3 0.00 0.00 0.00 71 1010.7
20220523092035 57 221 6.1 8.7 0.00 0.00 0.00 71 1010.7
20220523091547 57 214 4.3 8.7 0.00 0.00 0.00 69 1010.7
20220523091033 57 151 4.3 8.7 0.00 0.00 0.00 71 1010.7
20220523090531 57 118 3.5 11.3 0.00 0.00 0.00 71 1010.8
20220523090117 58 101 7.0 11.3 0.00 0.00 0.00 69 1010.8
20220523085533 58 174 4.3 9.6 0.00 0.00 0.00 69 1010.9
20220523085032 58 115 3.5 11.3 0.00 0.00 0.00 70 1010.9
20220523084548 57 180 6.1 11.3 0.00 0.00 0.00 71 1010.8
20220523084033 57 148 3.5 10.4 0.00 0.00 0.00 71 1010.8
20220523083532 56 145 4.3 11.3 0.00 0.00 0.00 72 1010.8
20220523083046 57 179 6.1 11.3 0.00 0.00 0.00 71 1010.9
20220523082533 57 192 5.2 9.6 0.00 0.00 0.00 71 1010.8
20220523082036 58 118 2.6 9.6 0.00 0.00 0.00 71 1010.8
20220523081542 58 150 3.5 9.6 0.00 0.00 0.00 73 1011.0
20220523081033 57 76 3.5 7.8 0.00 0.00 0.00 73 1010.9
20220523080534 57 161 2.6 7.8 0.00 0.00 0.00 74 1011.0
20220523080047 56 160 2.6 9.6 0.00 0.00 0.00 77 1011.0
20220523075533 56 176 3.5 9.6 0.00 0.00 0.00 78 1011.0
20220523075041 56 190 3.5 7.8 0.00 0.00 0.00 79 1011.1
20220523074541 55 150 3.5 7.8 0.00 0.00 0.00 79 1011.2
20220523074035 55 139 4.3 9.6 0.00 0.00 0.00 77 1011.2
20220523073534 56 150 4.3 9.6 0.00 0.00 0.00 80 1011.2
20220523073044 56 153 5.2 8.7 0.00 0.00 0.00 80 1011.2
20220523072533 56 52 3.5 7.0 0.00 0.00 0.00 80 1011.2
20220523072034 56 106 2.6 7.0 0.00 0.00 0.00 81 1011.2
20220523071551 55 201 2.6 7.8 0.00 0.00 0.00 82 1011.2
20220523071033 55 133 3.5 7.8 0.00 0.00 0.00 81 1011.2
20220523070533 55 217 4.3 7.0 0.00 0.00 0.00 82 1011.2
20220523070043 55 208 2.6 7.0 0.00 0.00 0.00 82 1011.3
20220523065533 54 156 3.5 7.0 0.00 0.00 0.00 81 1011.2
20220523065033 55 156 1.7 6.1 0.00 0.00 0.00 81 1011.2
20220523064540 54 156 3.5 6.1 0.00 0.00 0.00 83 1011.2
20220523064033 54 103 2.6 6.1 0.00 0.00 0.00 84 1011.2
20220523063536 54 79 0.9 7.0 0.00 0.00 0.00 85 1011.2
20220523063045 54 200 4.3 7.0 0.00 0.00 0.00 86 1011.2
20220523062534 54 243 2.6 6.1 0.00 0.00 0.00 87 1011.3
20220523062033 54 201 1.7 4.3 0.00 0.00 0.00 87 1011.2
20220523061549 54 98 1.7 6.1 0.00 0.00 0.00 87 1011.3
20220523061032 54 131 2.6 6.1 0.00 0.00 0.00 86 1011.3
20220523060533 54 98 1.7 5.2 0.00 0.00 0.00 87 1011.3
20220523060044 54 152 2.6 5.2 0.00 0.00 0.00 87 1011.2
20220523055534 53 203 1.7 5.2 0.00 0.00 0.00 86 1011.2
20220523055035 53 172 2.6 5.2 0.00 0.00 0.00 87 1011.4
20220523054542 53 165 2.6 7.8 0.00 0.00 0.00 88 1011.4
20220523054033 52 155 3.5 7.8 0.00 0.00 0.00 87 1011.4
20220523053535 52 167 3.5 8.7 0.00 0.00 0.00 88 1011.5
20220523053041 52 188 5.2 8.7 0.00 0.00 0.00 89 1011.4
20220523052533 52 182 2.6 4.3 0.00 0.00 0.00 90 1011.4
20220523052036 52 179 2.6 4.3 0.00 0.00 0.00 91 1011.4
20220523051547 51 238 1.7 7.0 0.00 0.00 0.00 92 1011.3
20220523051035 51 204 2.6 7.0 0.00 0.00 0.00 92 1011.4
20220523050536 51 218 2.6 5.2 0.00 0.00 0.00 92 1011.5
20220523050055 51 211 0.9 3.5 0.00 0.00 0.00 93 1011.5
20220523045533 51 148 0.9 3.5 0.00 0.00 0.00 93 1011.4
20220523045035 51 205 1.7 3.5 0.00 0.00 0.00 94 1011.5
20220523044548 51 188 0.9 2.6 0.00 0.00 0.00 94 1011.5
20220523044032 50 0 0.0 0.9 0.00 0.00 0.00 94 1011.4
20220523043533 50 0 0.0 0.9 0.00 0.00 0.00 95 1011.5
20220523043053 50 93 0.0 1.7 0.00 0.00 0.00 95 1011.6
20220523042533 50 163 0.0 1.7 0.00 0.00 0.00 95 1011.6
20220523042033 50 149 0.9 1.7 0.00 0.00 0.00 95 1011.6
20220523041544 50 0 0.0 0.9 0.00 0.00 0.00 95 1011.5
20220523041032 50 0 0.0 1.7 0.00 0.00 0.00 95 1011.5
20220523040535 49 0 0.0 1.7 0.00 0.00 0.00 96 1011.5
20220523040050 49 177 0.0 2.6 0.00 0.00 0.00 95 1011.6
20220523035532 49 93 0.9 2.6 0.00 0.00 0.00 95 1011.6
20220523035033 49 146 0.9 1.7 0.00 0.00 0.00 96 1011.6
20220523034542 49 161 0.0 0.9 0.00 0.00 0.00 95 1011.5
20220523034031 49 125 0.0 0.9 0.00 0.00 0.00 95 1011.5
20220523033534 49 0 0.0 0.9 0.00 0.00 0.00 96 1011.5
20220523033041 48 0 0.0 0.9 0.00 0.00 0.00 95 1011.5
20220523032534 48 0 0.0 0.9 0.00 0.00 0.00 96 1011.5
20220523032032 48 0 0.0 0.9 0.00 0.00 0.00 95 1011.5
20220523031533 48 0 0.0 0.9 0.00 0.00 0.00 95 1011.5
20220523031036 49 0 0.0 0.9 0.00 0.00 0.00 95 1011.5
20220523030533 49 91 0.0 0.9 0.00 0.00 0.00 95 1011.5
20220523030045 49 91 0.0 0.9 0.00 0.00 0.00 95 1011.5